Tracking 19176 objects as of 27-May-2018
HD Live streaming from Space Station
objects crossing your sky now

BREEZE-M DEB (TANK)

Track BREEZE-M DEB (TANK) now!
10-day predictions


NORAD ID: 37828
Int'l Code: 2011-054C
Perigee: 299.5 km
Apogee: 17,263.3 km
Inclination: 49.4 °
Period: 309.4 minutes
Semi major axis: 15152 km
RCS: 6.7148 m2 (large)
Launch date: September 29, 2011
Source: Commonwealth of Independent States (former USSR) (CIS)
Launch site: TYURATAM MISSILE AND SPACE COMPLEX (TTMTR)

Note: This is SATELLITE DEBRIS
aabbcc
Your satellite tracking list
Your tracking list is empty




NASA's NSSDC Master Catalog

Two Line Element Set (TLE):
1 37828U 11054C   18147.24506212 +.00000960 +00000-0 +16508-3 0  9990
2 37828 049.4033 146.7746 5597722 273.5635 027.4535 04.65457788109400
Source of the keplerian elements: AFSPC